This is the latest recevied weather packets stored in our database for station/object KB9GXK. If no packets are shown the sender has not sent any weather packets the latest 10 day(s).
| Time | Temp. | Humidity | Pressure | Rain* | Wind** | Luminosity | Snow |
|---|---|---|---|---|---|---|---|
| 1777995545 | 11.67° C | 41% | 1009.1 hPa | 0 mm | - | 345 W/m² | - |
| 1777995242 | 11.67° C | 41% | 1009.2 hPa | 0 mm | - | 337 W/m² | - |
| 1777994939 | 11.67° C | 40% | 1009.2 hPa | 0 mm | - | 244 W/m² | - |
| 1777994636 | 11.67° C | 38% | 1009.5 hPa | 0 mm | - | 221 W/m² | - |
| 1777994330 | 11.67° C | 41% | 1009.3 hPa | 0 mm | - | 242 W/m² | - |
| 1777994027 | 11.11° C | 43% | 1009.4 hPa | 0 mm | - | 196 W/m² | - |
| 1777993723 | 10.56° C | 42% | 1009.5 hPa | 0 mm | - | 181 W/m² | - |
| 1777993421 | 11.11° C | 44% | 1009.3 hPa | 0 mm | - | 190 W/m² | - |
| 1777993115 | 11.11° C | 42% | 1009.2 hPa | 0 mm | - | 183 W/m² | - |
| 1777992814 | 11.11° C | 43% | 1009 hPa | 0 mm | - | 169 W/m² | - |
| 1777992511 | 11.11° C | 43% | 1009.2 hPa | 0 mm | - | 190 W/m² | - |
| 1777992209 | 11.11° C | 43% | 1009.3 hPa | 0 mm | - | 178 W/m² | - |
| 1777991906 | 11.67° C | 41% | 1009.1 hPa | 0 mm | - | 263 W/m² | - |
| 1777991603 | 11.67° C | 43% | 1009.3 hPa | 0 mm | - | 323 W/m² | - |
| 1777991301 | 11.67° C | 42% | 1009.1 hPa | 0 mm | - | 290 W/m² | - |
| 1777990998 | 11.67° C | 42% | 1009.4 hPa | 0 mm | - | 319 W/m² | - |
| 1777990695 | 11.11° C | 41% | 1009.5 hPa | 0 mm | - | 407 W/m² | - |
| 1777990392 | 10.56° C | 44% | 1009.5 hPa | 0 mm | - | 331 W/m² | - |
| 1777989785 | 10.56° C | 43% | 1009.7 hPa | 0 mm | - | 168 W/m² | - |
| 1777989482 | 10° C | 43% | 1009.6 hPa | 0 mm | - | 174 W/m² | - |
| 1777989178 | 10.56° C | 45% | 1009.7 hPa | 0 mm | - | 147 W/m² | - |
| 1777988874 | 10.56° C | 45% | 1009.4 hPa | 0 mm | - | 173 W/m² | - |
| 1777988572 | 10.56° C | 47% | 1009.5 hPa | 0 mm | - | 233 W/m² | - |
| 1777988268 | 10° C | 46% | 1009.2 hPa | 0 mm | - | 171 W/m² | - |
| 1777987965 | 10° C | 44% | 1009.5 hPa | 0 mm | - | 163 W/m² | - |
* Rain latest hour (hover to see other rain measurements)
** Current wind speed in m/s (hover to see current wind gust speed)